GFSMW_sfc_dewp_102.txt.gz
Dewpoint
52 55 58 60 62 64 68 70 70 74 72 72 70 72 71 71 73 71 75 76 75 75 77 76 75 74 73 74 74 73 73 72 71 73 69 67 67 67 68 68 67 69 69
52 57 58 59 60 64 68 73 73 75 74 74 76 75 71 75 74 74 75 75 73 76 75 75 75 70 73 76 75 76 75 70 70 70 70 66 67 65 63 68 66 67 65
54 57 58 57 61 65 68 71 72 75 75 76 73 75 72 76 72 76 74 74 73 75 75 76 74 75 74 73 75 76 75 72 70 73 71 67 64 66 66 66 68 67 69
57 57 57 58 59 64 66 72 73 75 74 73 73 74 73 69 74 75 72 73 75 74 75 75 75 75 73 72 75 75 76 76 72 70 68 73 69 68 66 67 67 69 66
56 56 57 57 61 63 64 69 73 75 76 76 76 75 74 73 74 74 72 73 75 75 73 75 75 75 75 73 71 75 77 76 75 72 71 71 72 72 64 65 65 68 68
54 60 59 60 63 63 66 69 73 75 76 75 75 75 75 73 73 70 73 73 75 75 76 74 77 77 73 74 75 76 76 77 77 75 73 67 66 64 67 68 66 66 67
58 57 60 59 62 65 66 69 73 73 74 73 73 74 75 74 74 75 71 73 71 70 73 78 76 76 76 75 76 76 76 76 75 76 74 69 67 64 66 68 69 66 66
62 60 62 64 63 68 68 70 72 74 73 73 74 75 76 72 73 75 74 71 71 71 73 75 75 75 75 75 76 76 75 76 75 75 76 75 72 70 72 69 68 66 66
62 64 63 63 65 66 70 70 72 73 73 72 75 75 75 75 75 75 77 74 72 71 70 67 74 75 73 74 74 75 75 73 71 73 75 75 71 69 70 71 70 67 64
62 61 64 64 63 64 70 71 73 72 73 71 73 73 74 75 75 76 75 75 70 68 69 68 72 74 74 75 76 75 75 75 71 71 74 75 73 73 70 71 69 69 67
62 65 64 68 63 63 70 71 71 72 73 72 72 75 74 73 74 75 75 76 72 69 69 73 74 73 75 75 76 76 75 73 73 74 73 73 75 73 72 71 69 70 70
63 64 66 68 67 68 70 70 71 71 72 72 73 72 72 73 74 72 71 73 75 75 76 77 75 75 74 74 75 75 73 73 73 73 74 73 68 74 75 74 73 73 73
64 66 66 69 70 70 69 70 70 70 70 72 72 72 74 73 74 74 72 72 73 76 75 76 75 74 75 74 74 75 75 74 74 73 73 73 73 73 73 73 73 71 70
67 67 68 69 70 71 70 69 69 69 70 70 71 71 71 72 71 72 72 73 74 73 73 75 74 74 75 74 74 74 74 74 73 74 74 74 73 73 73 72 73 71 72
64 66 67 68 70 70 70 70 70 70 70 70 70 70 71 70 71 71 71 72 71 72 72 73 74 70 68 66 67 70 72 73 73 74 73 73 71 70 70 72 74 73 73
62 64 64 66 66 68 70 70 70 69 70 71 70 71 72 71 71 71 71 70 70 71 71 71 72 69 65 59 60 64 72 74 73 74 75 76 71 71 68 67 67 70 72
62 63 63 63 63 64 67 68 71 71 71 71 71 71 71 71 71 71 71 71 70 70 70 71 68 60 56 54 56 60 66 72 73 73 74 73 70 65 66 70 68 67 66
61 62 61 61 60 60 62 62 63 68 68 68 70 70 70 69 69 69 68 68 70 69 69 69 66 61 51 52 54 58 66 70 73 74 74 73 64 57 57 65 71 73 74
61 61 60 59 58 57 59 59 59 59 61 62 62 65 66 66 66 67 68 68 69 67 69 69 67 62 52 50 51 59 65 73 72 69 59 65 59 54 53 64 67 69 72
59 59 58 57 55 55 57 56 57 56 55 55 56 60 61 63 64 64 65 66 68 70 66 64 62 59 54 49 49 51 58 62 60 66 60 53 51 50 51 57 60 64 65
58 57 55 54 53 53 53 53 52 52 54 55 56 56 56 59 60 62 62 63 64 68 66 64 61 56 54 49 48 48 52 50 57 57 55 54 50 48 49 50 55 61 56
57 57 55 53 53 53 52 52 51 52 53 53 53 56 56 57 54 59 60 61 62 63 64 64 63 59 54 50 47 47 48 49 50 55 57 53 47 46 48 50 53 52 54
56 56 54 54 53 53 52 50 52 54 52 52 53 52 54 55 56 56 57 58 59 57 59 59 58 57 54 48 47 46 48 49 49 51 48 48 46 46 48 51 53 53 59
55 54 54 53 54 55 56 52 53 53 53 53 53 51 52 53 55 55 58 56 54 53 54 55 55 56 55 51 46 43 43 46 47 46 46 50 51 51 50 52 59 59 59
56 56 56 55 55 55 53 53 55 56 53 53 52 53 52 51 52 43 41 46 38 39 41 42 47 46 45 39 37 37 38 39 41 41 49 55 53 51 50 51 50 52 51
58 58 57 57 56 57 57 57 56 56 53 51 49 49 48 50 50 48 43 41 40 40 39 39 40 38 38 38 38 38 38 39 40 46 53 52 52 50 50 49 48 48 48

GFSMW_sfc_dewp_105.txt.gz
Dewpoint
53 58 60 62 62 63 65 69 69 70 68 68 69 69 67 68 70 70 72 70 71 71 71 73 69 63 71 70 69 70 70 69 68 66 65 62 63 65 67 67 67 66 67
52 58 60 61 61 65 65 69 70 69 70 71 72 71 69 71 71 71 71 71 69 70 71 72 71 70 71 71 70 69 71 68 66 65 67 60 61 63 64 66 66 65 67
54 57 60 60 62 66 69 70 71 71 71 71 71 71 71 71 69 71 71 71 72 71 71 71 71 70 69 64 68 72 71 70 68 67 67 63 61 62 61 61 64 62 65
57 57 59 60 62 64 67 69 71 71 71 72 69 69 69 67 70 70 71 70 72 71 72 69 69 68 64 60 67 72 72 71 70 69 67 67 67 63 58 64 63 62 64
58 56 56 60 62 66 66 69 70 71 71 70 71 70 68 69 71 71 70 67 71 72 71 72 72 70 69 70 71 69 72 73 71 71 69 67 67 65 67 62 63 67 68
61 60 58 59 63 64 68 69 70 70 71 71 70 69 69 70 69 68 70 71 71 71 72 71 72 71 66 63 68 72 72 72 72 71 67 65 63 63 66 65 63 63 67
61 60 59 61 60 62 66 70 70 71 71 71 70 69 70 70 69 68 68 70 70 69 70 71 71 71 68 67 71 70 70 72 71 72 68 66 65 63 66 68 67 62 66
62 63 58 64 66 64 66 69 71 71 71 71 71 70 71 71 71 71 70 70 69 71 71 72 71 71 72 71 71 70 71 71 69 69 71 70 69 66 66 66 63 61 66
62 63 63 66 68 68 68 70 71 71 72 70 72 70 72 70 70 71 71 72 72 71 71 69 67 68 71 71 71 71 69 69 67 64 70 71 72 69 69 69 65 67 63
60 63 65 67 69 69 68 70 72 71 71 71 72 71 71 71 71 71 69 69 69 69 69 67 67 68 72 70 71 71 71 69 65 64 71 69 70 69 69 68 68 67 65
59 63 66 67 67 67 68 67 67 71 71 72 72 72 71 72 70 70 71 70 68 67 66 68 70 72 71 71 70 71 70 69 70 70 70 69 69 70 71 69 69 68 67
57 64 66 66 65 65 67 67 68 70 71 72 71 71 71 69 70 69 69 70 70 69 69 71 73 72 71 71 71 71 71 70 70 70 70 69 69 69 69 70 69 67 68
63 65 66 66 66 65 66 69 70 70 71 71 71 70 68 69 71 70 69 69 71 71 72 72 71 71 71 71 71 72 71 71 71 70 70 70 70 69 68 68 67 69 70
63 64 65 65 66 67 69 70 69 69 69 69 69 67 69 69 70 70 71 70 70 70 70 71 72 71 69 69 69 71 71 71 71 72 71 71 70 69 69 69 69 69 67
66 65 65 67 67 69 69 69 68 68 69 68 68 68 68 68 69 68 68 68 69 70 71 71 69 68 66 64 65 67 69 71 71 72 71 71 71 70 68 69 69 69 68
64 65 65 66 66 67 68 68 69 69 69 69 68 70 70 69 69 69 68 68 68 68 70 69 67 63 59 56 58 60 65 70 71 71 70 71 66 66 67 67 67 67 67
62 63 63 62 63 64 64 65 68 69 69 69 69 69 69 69 69 70 69 68 67 68 69 64 58 50 49 53 55 59 61 67 70 70 70 69 61 59 61 66 68 68 66
62 61 61 60 61 61 62 62 66 68 68 69 69 69 69 68 67 67 67 66 67 67 66 63 59 51 45 52 54 60 63 67 69 66 67 62 56 54 53 62 67 69 66
60 59 59 58 58 59 60 61 60 61 61 62 63 66 66 65 65 64 66 66 67 66 66 63 58 51 44 50 51 57 61 67 61 55 55 51 49 52 54 56 57 62 64
58 58 57 56 56 56 58 58 57 57 56 56 60 61 61 62 61 61 62 62 64 66 61 60 57 54 45 49 49 53 51 55 62 58 53 52 46 50 51 47 51 56 59
56 56 55 54 53 54 55 55 55 55 56 56 57 57 57 59 59 59 59 60 62 64 62 58 55 53 46 44 48 48 44 46 52 54 51 49 49 47 48 49 47 53 53
55 54 53 52 53 52 53 53 52 54 54 54 55 56 57 56 56 56 57 58 58 60 62 62 56 51 48 48 47 48 49 49 45 47 51 44 47 46 47 48 51 51 53
55 54 53 52 52 52 52 50 51 51 51 51 51 51 51 53 54 53 54 52 55 54 57 58 57 52 45 43 47 46 48 48 46 46 47 48 48 49 50 52 53 53 55
55 54 53 52 52 52 51 50 51 52 51 51 50 50 49 50 51 47 51 47 46 48 49 48 49 53 49 44 38 37 40 44 42 41 41 47 51 51 51 49 48 48 48
54 54 54 53 53 53 51 51 52 52 51 52 51 50 50 50 42 39 42 38 36 38 41 39 41 44 43 35 36 35 34 37 38 40 46 48 47 45 46 46 46 46 46
56 56 55 55 54 54 51 52 53 53 51 50 50 50 50 48 45 40 37 40 40 40 39 39 41 34 37 37 38 37 38 39 40 40 46 45 46 45 45 44 44 45 47

GFSMW_sfc_dewp_108.txt.gz
Dewpoint
55 60 63 63 64 64 65 66 66 68 66 68 69 66 67 69 70 71 71 70 70 72 71 72 68 68 70 70 70 69 69 68 67 65 64 62 64 65 69 67 67 66 67
56 61 61 62 63 64 66 67 67 68 68 69 70 70 69 70 70 71 71 71 70 71 72 71 70 70 69 66 68 71 70 68 66 66 65 60 64 65 66 68 67 66 67
58 59 59 60 63 64 67 67 68 68 70 70 70 69 70 70 69 70 70 70 73 71 71 70 70 69 67 60 66 71 71 69 69 68 66 63 59 62 61 62 68 66 68
59 59 59 59 63 65 67 68 69 70 70 70 69 67 67 67 69 69 70 70 67 71 72 68 69 68 62 65 68 71 71 70 69 69 68 66 66 63 59 65 67 67 67
58 59 60 59 64 66 67 69 69 70 70 70 69 69 67 67 70 69 68 67 69 71 72 67 70 68 68 69 70 71 71 72 70 68 66 65 65 66 64 60 60 66 68
59 59 60 61 62 65 67 69 69 69 70 70 70 69 68 68 68 68 69 70 70 70 70 71 71 70 68 66 66 71 71 71 71 68 66 64 63 63 65 61 61 61 66
61 60 59 61 62 64 66 68 68 68 70 69 69 69 69 69 68 68 68 69 70 69 69 70 71 69 67 62 68 69 69 71 70 70 68 64 64 64 65 66 65 61 64
61 61 60 62 64 66 66 68 68 68 70 69 68 68 70 70 69 68 70 70 69 69 70 71 71 71 71 70 71 70 70 70 69 67 68 70 67 65 67 65 62 60 62
63 62 62 65 66 66 68 68 69 69 70 70 69 70 70 70 70 71 70 70 70 70 70 71 68 67 70 71 70 70 68 69 68 64 69 70 70 69 67 68 65 66 62
62 63 64 67 68 67 67 69 70 70 70 70 70 69 71 70 70 70 70 70 71 70 70 69 67 66 68 70 70 70 70 69 69 64 68 68 69 69 69 68 67 68 65
60 64 66 68 68 68 69 68 69 70 71 70 71 70 71 71 70 69 69 69 68 67 68 67 66 69 70 70 70 70 70 68 68 69 69 69 68 69 70 69 69 67 67
60 65 65 65 66 67 67 68 67 69 70 70 71 71 71 71 70 70 70 69 68 66 65 66 69 71 71 70 70 70 71 70 69 68 69 69 69 68 69 69 68 68 68
62 65 65 64 65 65 66 67 67 68 71 70 71 71 70 69 70 69 69 69 70 70 69 70 71 71 70 70 71 71 71 70 70 70 69 69 69 69 69 67 66 68 68
63 64 65 65 65 66 65 67 68 70 70 70 70 70 69 69 70 70 69 69 70 69 69 70 70 69 67 67 67 69 70 71 71 71 71 70 70 69 68 68 68 68 67
62 64 65 65 65 66 69 68 69 69 69 68 68 68 68 69 69 69 69 69 69 68 69 68 67 65 64 63 63 66 67 70 70 71 71 70 69 67 68 69 68 68 67
62 64 64 66 66 67 67 69 69 68 68 68 67 68 68 67 66 68 69 68 68 67 69 67 64 60 57 55 57 59 64 67 70 70 71 67 65 66 64 65 66 67 66
64 64 64 65 66 66 68 66 68 69 68 68 68 69 68 68 68 69 68 67 66 68 64 58 53 48 49 54 56 59 60 66 69 68 69 65 57 57 59 64 67 67 66
62 62 61 61 61 62 63 66 69 68 68 68 68 68 68 68 67 66 66 65 66 66 61 57 53 44 45 53 57 62 65 65 63 65 61 56 52 53 57 59 62 66 64
61 61 61 60 60 62 62 63 64 65 65 66 68 68 67 66 65 65 65 65 65 64 62 58 53 44 42 51 55 59 66 61 55 54 50 47 46 52 54 50 54 58 59
58 57 58 58 59 59 60 60 59 60 59 61 62 64 64 64 62 62 61 62 65 65 62 57 52 48 41 49 51 51 56 60 57 55 53 52 45 49 50 44 46 49 52
56 56 55 55 55 58 58 58 58 57 57 58 58 59 61 61 59 59 59 61 63 61 59 56 53 45 42 43 49 48 43 48 52 52 51 46 50 48 47 49 47 50 52
54 54 53 53 53 55 56 55 55 56 57 56 57 58 58 58 57 57 58 58 62 61 59 53 51 48 44 46 48 49 49 49 44 46 46 44 48 48 49 50 51 52 54
54 53 52 52 52 52 51 50 51 51 52 52 52 54 53 53 54 53 53 52 56 58 59 59 53 46 42 43 46 48 48 48 44 42 45 48 47 48 49 51 51 50 47
53 52 51 51 50 51 50 50 51 51 49 49 48 49 50 47 44 47 49 45 44 47 46 46 53 48 49 42 35 34 35 39 38 41 43 50 51 50 49 46 47 47 46
53 53 53 52 52 52 49 50 50 50 49 49 47 47 46 42 39 40 41 37 36 40 40 42 43 46 42 36 36 34 33 36 38 41 47 45 44 44 44 45 46 45 43
53 53 52 52 52 52 49 50 50 51 50 49 49 50 49 48 39 37 35 39 38 38 38 38 37 33 38 38 37 37 38 38 40 42 45 45 44 43 43 42 42 42 42

GFSMW_sfc_dewp_111.txt.gz
Dewpoint
60 63 63 63 64 64 64 65 68 67 68 68 66 67 67 68 69 71 70 71 71 72 71 70 65 68 69 68 70 70 68 66 66 64 63 62 64 64 68 67 67 67 66
60 63 63 63 63 63 64 65 67 66 67 68 68 69 69 70 69 70 71 71 71 71 71 70 69 69 66 65 70 71 69 68 68 67 62 59 63 65 66 68 68 67 67
59 62 62 63 63 63 65 65 67 66 68 69 69 69 70 69 69 70 70 70 71 71 70 70 68 68 65 60 68 70 70 68 69 68 65 62 58 62 65 66 68 68 69
60 62 61 62 62 64 66 66 67 69 69 69 68 67 67 66 68 68 69 70 67 71 71 69 68 66 62 66 69 71 71 69 67 67 66 66 65 62 59 64 66 67 67
59 60 60 61 63 65 66 66 68 69 69 69 68 68 66 66 68 68 68 68 67 70 72 68 69 67 68 69 70 70 70 71 68 66 66 64 64 65 63 59 60 64 67
58 59 59 60 63 65 66 68 68 69 69 68 68 68 67 67 68 68 68 68 69 70 70 71 70 69 69 67 67 70 70 70 69 66 64 63 62 62 63 61 60 61 64
59 59 59 60 64 65 67 68 68 68 69 68 68 68 68 68 68 68 68 68 69 69 69 70 71 69 67 66 66 69 68 70 70 68 66 64 63 64 65 65 64 61 62
59 60 60 61 63 65 66 67 67 67 69 68 68 69 69 69 68 68 68 69 69 69 69 70 71 70 70 66 70 70 69 70 68 66 68 68 66 65 67 65 62 62 62
62 60 60 62 64 64 66 67 67 67 69 68 68 68 69 69 69 69 69 69 69 69 69 70 70 70 70 70 70 69 68 68 67 65 66 69 69 67 66 67 65 65 61
63 62 61 63 65 66 67 68 68 67 69 69 68 68 69 69 69 70 69 69 69 70 68 69 68 67 67 69 70 70 69 68 68 64 67 68 69 69 68 68 66 67 64
62 64 64 65 66 68 68 69 69 69 69 70 69 69 69 69 70 70 69 69 69 68 68 69 67 65 68 70 70 70 70 69 68 69 69 68 68 68 69 68 68 67 66
61 64 66 67 67 67 68 68 68 70 70 70 70 70 70 70 70 69 69 69 68 67 66 66 66 68 70 70 70 69 71 70 68 68 68 68 70 68 68 68 68 67 67
63 65 66 66 66 66 66 66 67 67 69 70 70 70 70 70 70 69 69 69 68 68 67 68 69 70 70 70 70 70 71 70 70 70 69 69 69 68 69 67 66 67 68
62 64 65 64 65 66 66 66 67 68 69 70 70 70 70 70 70 70 69 68 69 68 69 70 70 69 67 67 68 69 70 70 70 70 71 70 70 69 68 69 68 68 68
62 64 64 64 64 65 66 66 68 69 70 70 68 69 70 71 70 70 69 69 69 69 69 69 67 66 65 63 63 64 66 67 68 71 71 70 69 68 67 69 69 68 67
60 62 63 64 65 66 67 67 68 68 68 68 69 69 69 69 68 68 68 69 68 68 69 67 65 61 62 58 57 60 63 66 70 70 68 67 66 64 63 64 65 66 66
63 64 64 65 65 66 67 67 68 68 67 67 68 68 68 67 67 67 68 68 68 68 64 60 56 50 50 55 57 59 60 66 69 70 69 63 55 58 61 64 64 63 64
62 62 62 62 62 64 65 66 68 68 68 67 67 67 67 68 68 68 67 66 67 63 58 53 50 45 48 55 59 63 65 65 66 64 63 59 52 53 56 59 65 62 58
61 61 61 60 61 62 62 65 65 66 67 67 68 67 68 67 66 65 64 65 64 60 57 52 48 43 43 53 56 62 61 59 57 56 56 50 45 51 53 48 53 54 52
57 59 60 60 60 61 62 62 64 65 65 66 67 67 66 65 64 64 64 64 63 61 57 53 46 46 40 50 51 58 57 52 52 55 52 52 47 49 50 44 46 47 50
56 56 56 56 58 60 60 59 59 59 61 62 62 63 63 63 63 62 63 64 63 59 56 53 47 41 41 46 50 48 48 52 53 52 50 44 50 49 47 48 48 50 52
54 54 54 54 55 56 57 57 56 58 60 61 61 60 60 61 58 58 60 62 61 59 56 52 48 44 42 47 48 49 49 48 46 46 45 42 48 49 50 50 51 52 50
53 53 53 52 53 53 54 53 52 54 55 55 55 56 55 55 55 55 52 55 60 60 57 53 50 45 42 39 44 46 46 46 42 41 45 48 47 48 49 51 50 48 44
53 52 52 51 51 51 50 49 50 49 48 48 48 50 51 45 45 47 48 47 48 48 49 49 56 47 49 42 35 33 34 39 39 43 49 51 49 49 48 46 45 45 44
51 50 50 49 49 49 49 50 50 48 47 46 46 46 46 41 41 39 39 38 36 41 43 43 50 47 46 41 37 35 32 37 39 44 45 43 43 43 43 43 43 42 42
53 53 52 52 51 48 48 48 48 48 48 47 48 49 47 41 39 38 35 39 38 38 37 38 40 35 40 38 37 37 37 39 39 44 44 43 43 41 40 40 40 41 42

GFSMW_sfc_dewp_114.txt.gz
Dewpoint
61 62 63 63 65 65 65 66 68 69 68 68 68 68 68 69 70 71 72 72 71 72 72 71 68 72 71 70 72 72 70 70 69 68 66 66 67 68 70 68 68 69 69
61 62 62 63 64 64 65 67 68 68 68 68 68 69 69 70 70 72 72 72 72 72 71 70 70 71 69 70 72 72 70 70 70 69 64 63 65 67 68 70 68 68 69
60 61 63 62 64 64 64 66 68 68 69 69 69 70 70 70 70 71 71 72 72 72 72 71 71 70 68 69 72 73 71 70 69 69 68 66 63 64 68 68 69 69 70
60 62 63 63 63 64 65 66 68 67 69 70 69 69 68 67 69 70 71 71 70 72 71 71 70 68 66 70 72 73 72 71 69 69 66 68 69 64 63 67 67 68 67
59 62 62 63 63 64 66 66 68 68 69 69 69 68 68 68 70 70 70 70 70 71 72 71 71 69 71 71 72 72 73 72 70 69 69 67 67 67 67 63 65 65 67
59 62 62 63 63 65 66 66 68 68 69 69 68 68 68 68 69 69 69 70 70 71 72 71 70 71 71 70 71 73 72 72 71 68 68 68 68 67 67 66 65 64 68
59 61 61 61 63 65 66 67 67 68 69 68 68 68 68 68 69 69 69 69 70 71 71 72 72 71 71 69 68 72 71 72 72 71 70 68 66 67 69 69 67 65 66
58 60 60 61 63 64 66 67 67 68 69 69 68 69 69 69 69 69 70 70 70 70 71 71 72 72 71 68 69 71 71 72 71 70 72 72 69 68 70 69 67 67 67
60 60 60 61 64 65 66 67 67 67 68 69 69 69 70 69 69 70 70 70 71 70 70 71 72 72 72 72 72 71 70 71 70 69 69 72 72 68 68 69 69 69 66
61 60 61 62 64 66 67 67 68 67 68 69 68 69 69 70 70 71 70 70 70 70 70 71 70 71 70 71 72 72 72 71 69 67 69 71 71 71 70 69 69 69 68
62 61 62 63 64 65 67 67 68 67 68 69 69 69 69 70 70 70 70 70 71 71 70 70 70 69 69 71 72 72 72 71 71 71 70 71 71 69 70 70 70 69 68
60 63 62 64 65 66 67 67 68 68 69 70 70 70 70 71 70 70 70 70 70 69 69 70 70 68 70 72 72 71 72 71 71 70 70 70 70 71 70 70 71 70 69
61 64 64 65 66 67 68 68 68 69 70 70 70 70 70 70 70 70 70 70 69 69 68 67 68 69 72 72 72 72 71 72 72 72 71 71 71 71 71 70 69 68 69
63 64 65 65 66 67 68 68 68 69 70 70 70 70 70 70 69 70 70 70 69 70 70 70 71 71 71 70 70 70 71 71 71 72 72 72 72 72 71 70 70 70 70
63 64 64 65 66 66 66 67 67 68 69 69 70 69 70 70 70 70 70 70 70 70 69 70 70 68 68 66 65 67 67 68 70 71 72 72 70 68 68 71 71 70 70
61 62 64 64 64 65 66 67 68 68 69 69 68 69 70 69 69 69 69 69 69 69 69 68 67 66 64 57 58 60 64 66 69 70 71 68 66 65 63 65 65 67 70
63 64 64 64 65 66 66 66 67 68 68 68 68 68 69 69 69 69 68 68 68 68 68 66 62 57 55 56 57 59 61 66 69 70 69 65 61 61 64 64 63 62 62
63 63 63 64 63 64 67 68 68 68 67 67 68 68 68 68 68 68 68 68 68 66 63 58 53 52 54 55 59 63 66 66 63 64 64 60 59 59 58 66 65 59 59
60 61 61 61 62 63 65 66 67 67 67 66 67 68 68 68 68 68 67 67 65 61 58 55 52 52 51 52 58 63 63 60 58 56 57 56 52 51 53 58 61 56 57
58 59 60 60 60 61 64 66 65 66 66 66 66 68 68 68 66 66 66 66 63 60 54 51 50 47 49 51 52 59 57 54 54 56 55 52 51 50 50 52 54 55 55
56 57 57 56 58 60 61 61 60 59 62 63 63 63 65 65 65 65 66 66 62 58 55 51 48 48 48 48 50 50 56 57 57 54 52 48 50 50 47 50 55 55 55
55 55 55 55 57 59 58 56 56 59 61 61 60 60 60 61 63 63 63 64 62 59 58 50 46 45 45 47 48 48 49 49 51 51 48 46 49 50 49 52 51 50 50
54 54 53 53 53 55 56 55 56 56 57 57 57 58 58 59 58 58 59 61 60 58 54 51 48 46 45 42 43 44 44 45 46 44 46 48 48 48 49 50 49 48 47
54 53 53 52 51 50 50 50 50 51 49 50 53 54 55 53 52 53 51 57 55 57 58 57 54 48 48 46 42 39 40 43 44 48 51 50 49 48 47 47 47 46 46
52 50 50 50 50 51 51 50 50 49 47 47 47 46 43 43 41 39 42 41 38 43 47 47 53 51 49 47 41 38 38 39 41 48 48 46 46 44 44 44 44 44 43
52 52 52 52 50 50 50 50 50 50 48 47 48 48 45 42 42 41 39 39 38 38 37 38 44 42 41 37 36 36 37 39 40 47 46 45 44 43 43 43 42 42 41

GFSMW_sfc_dewp_117.txt.gz
Dewpoint
61 62 64 64 65 66 67 69 69 71 71 70 70 69 74 70 70 70 73 73 73 74 75 72 70 73 72 74 75 72 73 70 71 68 67 68 68 68 69 68 68 68 68
60 62 63 63 64 66 68 69 70 72 71 70 71 70 71 70 70 72 74 74 73 74 73 73 71 74 71 75 75 74 70 70 71 68 66 62 63 66 66 69 68 68 67
59 61 63 63 64 66 67 69 71 72 72 72 71 72 72 75 71 72 72 73 73 74 74 73 73 73 71 71 75 74 73 69 70 72 68 63 61 65 67 68 69 70 69
59 61 62 62 64 65 67 69 71 72 72 72 71 73 69 68 73 77 75 72 73 74 73 73 72 73 68 73 74 73 73 73 69 69 68 71 70 64 62 66 68 68 67
58 60 61 62 63 65 66 68 71 72 72 72 72 69 74 69 72 72 74 73 73 73 73 73 73 71 69 74 75 75 75 72 69 69 69 70 67 69 65 61 64 65 65
57 60 61 63 63 64 65 66 69 71 72 72 72 72 73 73 70 73 70 72 71 70 74 74 73 73 73 73 74 75 74 74 72 70 70 68 66 65 65 64 66 64 66
57 59 62 63 64 64 65 66 68 70 71 71 71 72 72 72 73 73 75 73 75 73 74 76 73 73 74 73 72 75 74 74 73 74 70 70 66 67 69 68 67 65 66
56 59 61 63 64 64 66 66 67 69 71 71 72 72 72 69 69 72 73 70 70 70 73 73 75 75 74 73 72 70 72 73 73 73 74 72 70 69 70 68 66 64 66
57 59 61 63 64 65 66 66 67 68 70 70 71 72 72 72 70 72 72 70 72 71 73 72 73 74 74 73 73 70 72 73 73 72 72 72 72 69 69 70 68 65 60
59 59 61 62 64 65 67 67 68 68 69 70 70 70 71 73 73 72 73 73 72 73 73 72 72 73 74 74 75 75 73 73 71 70 71 72 71 71 71 70 69 68 66
60 61 62 63 64 66 66 68 69 69 69 70 71 71 71 71 73 73 73 73 73 73 72 73 72 73 73 73 73 75 74 73 73 72 72 72 74 70 69 70 70 69 69
61 61 63 64 64 65 66 67 69 69 70 70 72 72 72 72 72 73 73 73 73 72 73 72 72 71 72 72 73 72 72 73 73 72 73 72 69 73 75 70 72 71 72
63 63 64 65 65 65 66 68 69 70 70 71 71 72 72 72 73 73 73 73 73 72 71 71 71 72 71 71 73 74 74 72 72 72 72 72 72 74 70 75 75 71 69
62 65 64 64 66 68 68 68 70 70 71 71 71 71 72 72 72 73 72 71 72 73 72 72 72 72 72 73 74 74 73 73 73 73 73 73 73 74 73 74 74 71 74
61 64 65 66 66 67 69 70 70 70 71 71 71 71 74 73 73 72 72 71 71 71 72 72 72 73 73 72 72 72 71 71 71 72 73 74 69 67 67 71 74 74 74
62 64 65 66 66 66 68 68 70 70 71 71 71 73 72 71 72 71 72 71 71 70 71 71 69 68 69 59 58 63 69 69 70 71 72 71 67 65 66 66 66 68 72
62 64 65 65 66 66 67 67 68 69 70 70 71 71 70 70 70 70 71 71 70 69 70 69 67 66 60 56 58 59 64 67 70 71 72 69 63 65 67 63 62 61 61
63 64 66 66 67 68 68 67 68 68 68 68 68 69 68 68 69 69 69 69 69 69 68 65 61 58 57 54 58 62 66 69 68 67 69 66 61 60 60 67 63 61 60
61 61 63 63 65 66 69 68 68 68 68 67 68 68 69 68 68 68 68 69 69 67 64 60 56 57 55 53 59 65 67 64 60 59 59 61 56 52 53 63 63 59 57
60 60 60 61 62 62 64 67 67 68 68 67 67 68 68 68 68 68 68 67 67 64 61 59 55 51 53 51 53 61 64 63 58 56 54 51 53 50 50 57 59 59 59
58 58 59 58 60 61 63 63 64 63 65 65 65 65 64 66 67 66 67 65 62 61 60 58 56 52 52 50 50 52 63 61 61 59 56 54 51 51 48 51 57 58 58
57 57 58 57 58 59 59 58 59 61 62 63 63 63 62 62 62 64 66 63 61 59 58 56 52 53 47 48 47 48 50 50 58 58 55 52 50 49 49 53 52 52 53
57 56 55 55 55 57 57 55 56 58 59 59 59 58 60 59 58 61 63 63 63 61 59 53 49 47 46 44 45 45 45 46 48 47 46 49 48 49 50 50 51 51 50
56 56 55 52 52 52 52 53 54 55 55 54 55 56 54 55 55 55 58 60 61 60 57 57 55 50 49 48 44 41 41 45 48 51 49 51 50 50 48 48 49 48 48
53 53 54 53 53 52 52 51 52 52 50 50 48 46 46 48 49 49 50 53 47 49 56 53 56 55 52 50 43 40 41 43 44 51 50 49 48 47 48 47 46 46 45
54 53 52 52 51 50 50 52 52 51 49 47 46 45 44 44 44 43 41 40 40 41 38 39 46 45 43 39 37 37 38 39 41 48 48 48 47 46 46 45 44 43 43

GFSMW_sfc_dewp_123.txt.gz
Dewpoint
55 57 57 57 58 62 64 66 67 71 70 67 65 68 65 71 70 69 71 71 70 72 73 68 70 74 71 73 70 69 71 66 65 62 59 61 61 61 61 61 60 63 62
53 57 57 57 58 61 65 67 68 71 72 67 75 73 71 72 69 70 70 70 70 72 71 74 69 74 68 74 72 73 71 63 65 68 59 58 57 57 57 61 60 61 61
53 55 57 57 58 61 64 67 70 72 72 74 69 72 75 71 66 67 67 69 70 71 72 72 73 72 73 70 71 73 73 71 65 71 66 61 61 60 57 61 61 64 62
52 53 55 57 57 61 63 67 70 72 71 73 73 72 68 65 65 67 69 68 70 70 70 71 72 74 71 74 70 68 74 73 70 64 62 70 68 62 67 65 69 65 63
53 53 54 58 58 61 63 65 70 73 73 73 76 69 70 70 69 71 73 72 72 71 69 71 72 73 69 72 74 73 74 71 67 64 70 68 63 66 61 60 67 69 70
54 53 56 58 60 60 63 64 70 73 73 73 71 74 74 71 70 69 70 68 67 68 71 70 73 73 73 72 72 74 74 74 73 70 68 62 63 63 63 58 61 65 62
54 53 55 57 61 61 63 64 68 71 71 72 71 71 72 71 71 71 67 68 70 70 74 74 73 71 74 73 73 74 75 73 71 75 68 65 63 63 62 61 59 59 59
54 54 55 57 63 63 63 65 67 70 70 71 71 73 72 68 67 70 67 66 66 66 72 72 72 72 73 72 73 70 69 73 69 73 74 68 65 63 63 62 60 58 57
56 57 55 55 62 63 64 66 67 69 69 69 71 72 72 71 69 75 72 69 72 68 72 71 72 72 72 72 74 70 70 71 72 71 73 71 64 60 61 61 60 59 56
58 58 56 56 59 61 64 65 67 68 68 68 68 69 70 71 71 75 73 72 75 73 73 73 72 72 72 73 75 72 74 72 70 68 73 73 67 66 65 63 62 63 64
55 57 63 59 59 62 63 66 66 68 68 68 70 71 69 70 71 70 72 74 75 74 74 74 75 74 73 73 76 75 75 74 73 72 71 72 73 68 65 66 66 63 61
58 61 60 61 62 63 64 65 67 67 68 69 72 71 71 70 69 70 70 75 75 76 76 75 74 74 74 75 75 74 71 73 71 71 73 70 67 74 74 67 73 71 72
61 62 64 66 63 64 65 64 66 68 67 70 68 70 70 70 71 71 71 72 74 74 71 75 75 75 74 73 73 74 73 72 71 71 71 71 72 74 70 73 69 68 70
64 65 65 66 68 66 68 68 67 68 69 68 68 70 69 69 70 71 73 71 72 73 72 73 73 73 71 71 73 73 73 72 72 74 72 72 73 74 73 75 77 76 74
64 65 65 65 67 67 69 69 70 70 69 69 69 71 73 72 73 73 74 74 73 72 72 71 71 72 71 68 72 72 72 72 71 72 72 73 72 69 70 71 75 74 70
61 63 64 65 65 67 67 68 70 73 73 72 71 74 75 73 73 74 73 74 73 73 73 73 71 72 71 61 62 65 69 70 71 71 71 72 70 68 67 68 68 70 73
60 61 66 66 66 67 69 69 71 72 72 72 71 72 72 73 73 72 75 75 75 75 73 73 72 72 66 59 58 59 65 70 72 72 73 72 70 70 71 63 62 61 61
65 64 66 68 68 68 69 69 70 70 70 72 71 72 72 72 73 73 73 74 74 73 73 71 70 70 59 56 59 63 67 68 70 69 69 73 72 64 65 69 67 65 63
62 63 65 68 68 68 68 67 68 68 69 70 70 71 70 70 70 71 71 71 72 71 70 67 64 63 59 55 57 62 68 68 66 64 62 66 66 52 52 61 67 64 62
61 61 62 65 67 68 68 66 66 67 66 67 69 70 71 71 70 71 72 71 71 69 63 61 59 59 59 52 53 55 64 68 67 64 60 53 59 56 52 57 67 65 64
60 60 59 61 61 64 68 68 67 66 67 68 68 67 67 68 68 68 68 65 61 60 58 58 57 55 53 51 49 51 58 61 66 67 64 52 52 53 51 51 60 63 61
59 59 58 57 59 61 62 62 63 65 67 66 66 66 66 66 66 64 62 61 60 59 57 55 54 54 52 49 50 50 51 50 61 65 62 56 51 51 51 53 54 54 56
57 57 56 55 56 58 59 57 59 61 62 62 61 61 62 62 63 65 63 62 61 59 58 57 56 55 55 55 52 48 50 54 52 48 55 52 51 51 52 54 53 53 58
57 57 55 54 54 56 57 57 58 59 58 58 58 57 58 61 63 61 61 63 62 61 60 59 57 56 56 58 56 54 49 51 49 52 54 53 52 51 52 52 51 54 55
57 57 56 54 54 55 57 55 55 54 52 52 54 54 53 53 53 55 57 57 53 58 61 61 60 59 58 57 50 45 49 47 50 49 52 52 54 52 52 54 53 53 52
55 53 51 50 52 52 53 56 54 54 52 47 45 48 50 48 47 46 45 42 46 46 46 47 52 55 45 40 37 37 38 40 42 48 51 51 50 47 47 48 49 50 49